Location: Wien
(48.2082°N, 16.3738°E)
Time: 12:14:19
(UTC+02:00)

Tiros 1 despin weight - Pass Details

Date: 14 September 2024
Orbit: 573 x 615 km, 48.2° (Epoch: 06 October)

Event Time Altitude Azimuth Distance (km) Brightness Sun altitude
Rises 05:36:51 0° 245° (WSW) 2,875 - -9.6°
Reaches altitude 10° 05:39:09 10° 242° (WSW) 1,975 - -9.2°
Exits shadow 05:39:23 11° 242° (WSW) 1,886 ? -9.2°
Maximum altitude 05:43:40 64° 161° (SSE) 685 ? -8.5°
Drops below altitude 10° 05:48:11 10° 80° (E) 1,984 ? -7.8°
Sets 05:50:30 0° 78° (ENE) 2,889 ? -7.4°
